DC5DM-13 Weather Reports


time (UTC)temp
C
wind
direction
speed
KPH
gust
KPH
rain 1hr
cm
rain 24hr
cm
rain mn
cm
humidity
%
barometer
mb
20260506111600 12 238 1.6 6.4 0.03 1.47 0.30 97 1005.4
20260506110528 12 248 0.0 3.2 0.03 1.47 0.30 97 1005.5
20260506105600 12 0.0 0.0 0.03 1.47 0.30 98 1005.5
20260506104624 11 231 1.6 3.2 0.03 1.47 0.30 97 1005.6
20260506103546 12 0.0 0.0 0.00 1.45 0.28 97 1005.6
20260506102617 12 0.0 0.0 0.00 1.45 0.28 97 1005.6
20260506101545 12 231 0.0 3.2 0.00 1.45 0.28 97 1005.4
20260506100617 12 0.0 0.0 0.00 1.45 0.28 98 1005.5
20260506095539 12 203 1.6 6.4 0.00 1.45 0.28 98 1005.4
20260506094605 12 252 1.6 6.4 0.00 1.45 0.28 99 1005.5
20260506093529 11 248 3.2 6.4 0.00 1.45 0.28 99 1005.5
20260506092552 11 240 3.2 6.4 0.00 1.45 0.28 99 1005.4
20260506091619 11 258 1.6 6.4 0.03 1.45 0.28 99 1005.4
20260506090549 11 243 1.6 6.4 0.03 1.45 0.28 99 1005.3
20260506085619 11 254 0.0 3.2 0.03 1.45 0.28 99 1005.3
20260506084550 11 218 0.0 6.4 0.03 1.45 0.28 99 1005.3
20260506083620 11 246 1.6 6.4 0.03 1.45 0.28 99 1005.2
20260506082550 11 248 0.0 3.2 0.03 1.45 0.28 99 1005.1
20260506081620 10 257 1.6 6.4 0.00 1.42 0.23 99 1005.1
20260506080550 10 193 0.0 3.2 0.00 1.42 0.23 99 1005.2
20260506072550 10 249 1.6 3.2 0.00 1.42 0.23 99 1005.0
20260506071620 10 259 1.6 3.2 0.00 1.42 0.23 99 1004.9
20260506070550 10 276 3.2 6.4 0.00 1.42 0.23 99 1004.9
20260506061620 10 250 1.6 6.4 0.00 1.42 0.23 99 1004.8
20260506060549 10 278 1.6 6.4 0.00 1.42 0.23 99 1004.7
20260506050550 10 0.0 0.0 0.00 1.42 0.23 99 1004.8
20260506044550 10 262 0.0 3.2 0.00 1.42 0.23 99 1004.8
20260506043621 10 270 0.0 3.2 0.00 1.42 0.23 99 1004.9
20260506041624 10 252 1.6 3.2 0.00 1.42 0.23 99 1004.9
20260506040544 10 240 1.6 3.2 0.00 1.42 0.23 99 1004.9
20260506035615 10 239 1.6 3.2 0.00 1.42 0.23 99 1004.9
20260506034544 10 255 1.6 3.2 0.00 1.42 0.23 99 1005.0
20260506033615 10 261 3.2 6.4 0.00 1.42 0.23 99 1005.0
20260506032544 10 244 1.6 6.4 0.00 1.42 0.23 99 1004.8
20260506031616 10 245 3.2 6.4 0.00 1.42 0.23 99 1004.8
20260506030544 10 0.0 0.0 0.00 1.42 0.23 99 1004.9
20260506025616 10 0.0 0.0 0.00 1.42 0.23 99 1005.0
20260506024540 10 0.0 0.0 0.00 1.42 0.23 99 1005.1
20260506023601 10 0.0 3.2 0.00 1.42 0.23 99 1005.2
20260506022620 10 248 0.0 3.2 0.00 1.42 0.23 99 1005.1
20260506021548 10 269 1.6 3.2 0.00 1.42 0.23 99 1005.3
20260506020619 11 229 1.6 3.2 0.00 1.42 0.23 99 1005.2
20260506015547 11 257 1.6 6.4 0.00 1.42 0.23 99 1005.3
20260506014613 11 274 1.6 3.2 0.00 1.42 0.23 99 1005.4
20260506013541 11 247 1.6 6.4 0.03 1.42 0.23 99 1005.3
20260506012612 11 281 1.6 3.2 0.03 1.42 0.23 99 1005.3
20260506011535 11 282 1.6 6.4 0.03 1.42 0.23 99 1005.4
20260506010605 11 256 3.2 6.4 0.03 1.42 0.23 99 1005.4
20260506005624 11 253 1.6 6.4 0.05 1.42 0.23 99 1005.3
20260506004552 11 236 3.2 6.4 0.15 1.42 0.23 99 1005.5
20260506003622 11 266 3.2 9.7 0.13 1.37 0.20 99 1005.3
20260506002552 11 252 1.6 6.4 0.13 1.37 0.20 99 1005.5
20260506001622 11 260 1.6 3.2 0.13 1.37 0.20 99 1005.5
20260506000552 11 225 1.6 3.2 0.13 1.37 0.20 99 1005.5
20260505235623 11 244 1.6 3.2 0.13 1.35 0.18 99 1005.7
20260505234552 11 248 0.0 3.2 0.05 1.27 0.10 99 1005.8
20260505233622 11 274 1.6 3.2 0.05 1.27 0.10 99 1005.8
20260505232552 11 257 1.6 3.2 0.05 1.27 0.10 99 1005.9
20260505231622 11 0.0 3.2 0.05 1.27 0.10 99 1005.8
20260505230552 12 0.0 0.0 0.10 1.27 0.10 99 1005.8
20260505225622 12 0.0 0.0 0.05 1.22 0.05 99 1005.9
20260505224553 12 0.0 0.0 0.03 1.19 0.03 99 1006.0
20260505223623 12 0.0 0.0 0.05 1.19 0.03 99 1006.0
20260505222553 12 0.0 0.0 0.05 1.19 0.03 99 1006.2
20260505221622 12 0.0 0.0 0.05 1.19 0.03 99 1006.2
20260505220552 12 0.0 0.0 0.05 1.17 0.00 99 1006.1
20260505215623 12 0.0 0.0 0.05 1.17 1.17 99 1006.3
20260505214546 12 0.0 0.0 0.05 1.17 1.17 99 1006.4
20260505213616 12 0.0 0.0 0.05 1.14 1.14 99 1006.5
20260505212539 12 0.0 0.0 0.05 1.14 1.14 99 1006.5
20260505211609 12 0.0 0.0 0.05 1.14 1.14 99 1006.5
20260505210539 12 0.0 0.0 0.10 1.12 1.12 99 1006.7
20260505205608 12 0.0 0.0 0.15 1.12 1.12 99 1006.8
20260505204532 12 0.0 0.0 0.18 1.12 1.12 99 1006.8
20260505203602 12 0.0 0.0 0.15 1.09 1.09 99 1006.9
20260505202627 12 0.0 0.0 0.15 1.09 1.09 99 1006.9
20260505201548 12 0.0 0.0 0.18 1.09 1.09 99 1006.9
20260505200619 12 0.0 0.0 0.18 1.02 1.02 99 1006.8
20260505195543 12 0.0 0.0 0.18 0.97 0.97 99 1006.8
20260505194612 12 0.0 0.0 0.18 0.94 0.94 99 1006.8
20260505193542 12 0.0 0.0 0.18 0.94 0.94 99 1006.8
20260505192612 12 0.0 0.0 0.18 0.94 0.94 99 1006.7
20260505191542 12 0.0 0.0 0.18 0.89 0.89 99 1006.8
20260505190606 12 0.0 0.0 0.13 0.84 0.84 99 1006.7
20260505185531 12 0.0 0.0 0.10 0.79 0.79 99 1006.7
20260505184555 12 0.0 0.0 0.05 0.76 0.76 99 1006.8
20260505183622 12 0.0 0.0 0.10 0.76 0.76 99 1006.8
20260505182552 13 0.0 0.0 0.10 0.76 0.76 99 1006.8
20260505181623 13 0.0 0.0 0.10 0.71 0.71 99 1006.9
20260505180552 13 0.0 0.0 0.13 0.71 0.71 99 1006.8
20260505175623 13 0.0 0.0 0.18 0.69 0.69 99 1006.9
20260505174552 13 0.0 0.0 0.20 0.69 0.69 99 1006.9
20260505173622 13 0.0 0.0 0.23 0.66 0.66 99 1007.0
20260505172552 13 0.0 0.0 0.33 0.66 0.66 99 1007.1
20260505171623 13 0.0 0.0 0.51 0.64 0.64 99 1007.1
20260505170552 13 0.0 0.0 0.53 0.61 0.61 99 1007.2
20260505165622 13 0.0 0.0 0.51 0.51 0.51 99 1007.3
20260505164552 13 0.0 0.0 0.48 0.48 0.48 99 1007.2
20260505163622 13 248 0.0 3.2 0.43 0.43 0.43 99 1007.1
20260505162552 13 286 0.0 6.4 0.33 0.33 0.33 98 1007.1
20260505161622 13 263 3.2 6.4 0.13 0.13 0.13 96 1006.9
20260505160552 15 272 6.4 14.5 0.05 0.10 0.05 92 1007.1
20260505152552 16 0.0 0.0 0.00 0.05 0.00 80 1007.0
20260505151622 17 0.0 0.0 0.00 0.13 0.00 79 1007.0
20260505150552 17 0.0 0.0 0.00 0.15 0.00 75 1007.1
20260505140539 16 293 0.0 3.2 0.00 0.30 0.00 79 1007.6
20260505124532 16 0.0 3.2 0.00 0.30 0.00 74 1008.3
20260505123603 16 0.0 3.2 0.00 0.30 0.00 74 1008.3
20260505122532 16 252 1.6 3.2 0.00 0.30 0.00 74 1008.3
20260505121551 16 0.0 0.0 0.00 0.30 0.00 74 1008.4
20260505120619 16 0.0 0.0 0.00 0.30 0.00 74 1008.5
20260505115547 16 0.0 0.0 0.00 0.30 0.00 73 1008.6
20260505114619 16 243 1.6 3.2 0.00 0.30 0.00 72 1008.6
20260505113547 16 231 3.2 6.4 0.00 0.30 0.00 73 1008.7
20260505112619 16 267 1.6 6.4 0.00 0.30 0.00 75 1008.8